Simultaneous Nadir Overpasses (SNOs) Predictions

Prediction of SNOs between METOP-A and TERRA Satellite Orbit:

Table of predicted SNOs for the next 14.0 days since TLE Epoch: 10/10/2015
Index Date (METOP-A) Time (METOP-A) Lat,Lon (METOP-A) SZA (METOP-A ) Date (TERRA) Time (TERRA) Lat,Lon (TERRA) SZA (TERRA ) Distance(km) Time Diff (sec)
1 10/12/2015 22:25:52 81.36,-108.50 92.08 10/12/2015 22:26:40 81.36,-108.34 92.12 2.72 48
2 10/12/2015 23:16:31 -81.37, 59.44 87.84 10/12/2015 23:16:06 -81.38, 59.62 87.82 3.21 25
3 10/15/2015 18:00:12 81.36, -42.11 93.14 10/15/2015 18:00:58 81.36, -41.99 93.17 2.11 46
4 10/15/2015 18:50:51 -81.37, 125.85 86.78 10/15/2015 18:50:24 -81.37, 125.99 86.77 2.42 27
5 10/18/2015 13:34:31 81.36, 24.64 94.22 10/18/2015 13:35:15 81.37, 24.65 94.24 0.53 44
6 10
